Tracking 26308 objects as of 30-Nov-2022
HD Live streaming from Space Station
objects crossing your sky now

COSMOS 1408 DEB

Track COSMOS 1408 DEB now!
10-day predictions


NORAD ID: 51917
Int'l Code: 1982-092BST
Perigee: 399.5 km
Apogee: 424.4 km
Inclination: 82.6 °
Period: 92.7 minutes
Semi major axis: 6782 km
RCS: Unknown
Launch date: September 16, 1982
Source: Commonwealth of Independent States (former USSR) (CIS)
Launch site: PLESETSK MISSILE AND SPACE COMPLEX (PKMTR)

Note: This is SATELLITE DEBRIS
aabbcc
Your satellite tracking list
Your tracking list is empty




NASA's NSSDC Master Catalog

Two Line Element Set (TLE):
1 51917U 82092BST 22334.07403405  .00093245  00000-0  14140-2 0  9996
2 51917  82.5665  99.9024 0018416 218.4233 141.5710 15.54083283 43839
Source of the keplerian elements: AFSPC